This demonstration page uses our WeatherBlox Daily Observations layout. Learn more.

41.55636, -103.73856

Hourly Observations for August 10, 2018

Temp ( °F °C ) Dew Point ( °F °C ) Humidity (%) Winds ( mph kmh ) Pressure ( in mb ) Visibility ( mi km ) Precip ( " mm )
12:58 am 00:58 Mostly Cloudy 65 18.5 53 11.6 64 64 S 5 7 30.03 1017 10 16.09344 0 0
1:58 am 01:58 Mostly Cloudy 64 17.6 53 11.8 69 69 Calm 30.03 1017 10 16.09344 0 0
2:58 am 02:58 Partly Cloudy 60 15.4 54 12 80 80 Calm 30.06 1018 10 16.09344 0 0
3:58 am 03:58 Partly Cloudy 60 15.8 53 11.5 76 76 SW 3 6 30.06 1018 10 16.09344 0 0
4:58 am 04:58 Mostly Clear 61 16.1 52 11.1 72 72 WSW 5 7 30.06 1018 10 16.09344 0 0
5:58 am 05:58 Clear 58 14.4 52 10.9 80 80 W 8 13 30.09 1019 10 16.09344 0 0
6:58 am 06:58 Sunny 59 14.8 53 11.6 81 81 N 7 11 30.12 1020 10 16.09344 0 0
7:58 am 07:58 Sunny 68 19.8 55 12.9 65 65 N 6 9 30.09 1019 10 16.09344 0 0
8:58 am 08:58 Sunny 67 19.6 54 12.2 62 62 SSE 8 13 30.15 1021 10 16.09344 0 0
9:58 am 09:58 Sunny 71 21.8 55 13 57 57 S 8 13 30.12 1020 10 16.09344 0 0
10:58 am 10:58 Sunny 75 24.1 55 13 50 50 S 6 9 30.12 1020 10 16.09344 0 0
11:58 am 11:58 Sunny 80 26.5 55 12.8 43 43 S 6 9 30.12 1020 10 16.09344 0 0
12:58 pm 12:58 Sunny 82 28 49 9.7 32 32 S 6 9 30.09 1019 10 16.09344 0 0
1:58 pm 13:58 Mostly Sunny 84 28.7 47 8.5 28 28 SE 5 7 30.09 1019 10 16.09344 0 0
2:58 pm 14:58 Mostly Sunny 84 28.8 49 9.4 30 30 SE 12 19 30.09 1019 10 16.09344 0 0
3:58 pm 15:58 Sunny 84 28.9 48 9.1 29 29 SSE 8 13 30.06 1018 10 16.09344 0 0
4:58 pm 16:58 Sunny 84 28.7 49 9.3 30 30 S 7 11 30.06 1018 10 16.09344 0 0
5:58 pm 17:58 Sunny 83 28.2 50 10.2 33 33 SSE 8 13 30.06 1018 10 16.09344 0 0
6:58 pm 18:58 Sunny 80 26.7 51 10.6 37 37 SSE 8 13 30.06 1018 10 16.09344 0 0
7:58 pm 19:58 Sunny 74 23.5 54 12.3 50 50 SSE 8 13 30.06 1018 10 16.09344 0 0
8:58 pm 20:58 Clear 69 20.7 52 11.2 55 55 S 8 13 30.09 1019 10 16.09344 0 0
9:58 pm 21:58 Clear 68 20.2 51 10.8 55 55 S 10 17 30.09 1019 10 16.09344 0 0
10:58 pm 22:58 Clear 64 17.8 51 10.6 63 63 SSW 9 15 30.09 1019 10 16.09344 0 0
11:58 pm 23:58 Clear 64 17.5 50 9.8 61 61 SW 9 15 30.09 1019 10 16.09344 0 0

Powered by AerisWeather